Theta_e
304 298 297 300 302 301 300 298 297 299 301 302 300 299 300 298 302 304 304 306 308 311 313 309 312 317 321 320 318 316 315 316 315 313 313 313 312 313 313 313 313 313 313 312
299 294 301 304 302 301 300 297 295 298 300 301 298 299 301 297 296 300 302 301 305 308 304 307 311 313 316 317 315 315 315 314 314 313 315 315 313 312 312 312 311 309 309 309
292 296 303 302 301 298 298 296 293 295 297 297 295 294 296 296 297 296 297 299 302 306 304 304 306 307 308 310 312 312 313 314 313 313 313 312 311 311 310 309 307 305 305 305
295 298 300 300 298 300 295 301 298 295 294 290 296 289 294 294 292 293 295 296 298 301 302 302 303 303 304 304 307 308 308 308 309 312 312 312 311 309 307 305 302 300 300 300
290 293 298 297 299 301 296 301 298 297 294 293 290 288 294 292 289 291 295 296 297 299 301 301 301 301 302 303 304 304 304 304 305 306 307 306 303 303 301 298 296 296 296 297
292 297 295 297 299 301 300 296 294 294 292 285 291 290 290 288 292 294 295 296 297 298 299 299 300 299 299 300 301 300 300 299 300 300 300 300 298 295 294 294 293 293 293 295
290 291 295 295 295 298 297 294 284 283 282 284 287 288 294 295 295 298 297 296 296 297 297 297 297 297 297 297 297 296 295 294 294 295 295 295 294 293 292 291 291 291 291 291
286 284 288 293 292 293 294 294 286 281 280 282 285 284 290 295 296 297 297 296 296 296 297 297 297 297 295 294 294 293 292 291 292 292 292 293 292 291 291 290 290 290 289 290
285 284 291 293 294 294 291 289 290 283 279 278 282 284 288 288 290 292 293 294 295 296 297 297 297 295 294 293 292 292 291 291 291 292 291 289 289 289 289 288 288 288 288 288
288 283 288 292 294 294 292 292 285 285 279 276 280 279 283 285 288 290 291 293 294 296 296 296 295 294 293 292 291 290 291 290 290 289 289 288 288 288 288 287 287 287 287 288
291 287 285 290 288 287 288 287 287 288 285 278 277 282 285 285 286 288 291 293 294 294 294 295 294 293 292 291 289 288 287 287 287 287 286 286 287 287 287 286 286 286 286 286
292 288 283 284 287 291 290 289 288 285 281 280 280 281 285 286 287 288 291 293 293 293 294 294 292 292 290 288 286 286 286 285 286 285 285 286 286 286 285 285 285 286 285 286
291 283 279 282 286 287 288 289 290 287 284 280 277 281 286 288 289 291 290 290 291 291 290 290 290 290 288 286 286 286 286 285 285 285 285 284 284 285 285 285 285 285 285 284
290 283 281 279 281 284 283 286 288 286 281 281 280 282 285 286 288 289 289 290 290 291 291 290 290 290 288 287 286 285 285 285 284 284 284 283 284 284 284 284 284 284 284 283
284 274 278 281 282 282 282 282 285 286 286 281 285 283 290 287 288 289 291 289 289 289 289 290 291 291 288 286 286 285 285 284 284 284 284 284 284 284 283 283 283 283 283 283
283 273 277 272 279 279 276 280 283 286 286 287 287 286 292 292 288 288 289 289 289 290 291 291 291 291 290 288 287 285 284 284 284 284 284 284 283 283 283 283 282 282 282 281
279 273 270 270 272 271 270 277 280 282 284 286 283 288 289 289 289 289 288 290 291 291 292 291 291 292 292 289 288 285 284 284 283 284 283 283 282 282 282 282 281 281 280 280
271 267 264 267 265 264 277 278 280 281 283 284 285 286 286 288 289 289 290 290 291 293 293 293 292 292 291 288 286 285 284 283 283 283 282 282 282 281 281 280 280 280 280 280
279 275 263 267 258 272 277 275 277 278 276 280 281 283 284 283 284 286 288 290 292 293 293 293 292 291 289 288 285 284 283 283 282 281 281 281 281 280 279 279 279 279 279 279
278 275 271 256 262 263 275 275 278 278 271 278 279 280 279 280 278 281 285 287 289 290 290 290 288 286 288 285 284 284 282 281 281 281 281 281 280 279 279 279 279 279 279 278
276 264 265 259 260 269 277 278 279 270 275 278 278 279 279 279 282 284 284 285 287 287 287 286 286 287 287 284 284 282 280 280 281 281 280 279 279 279 279 278 278 278 277 277
275 270 264 258 262 269 278 278 275 279 278 279 278 279 280 282 282 283 282 283 284 284 284 284 283 283 283 283 283 280 280 280 280 279 278 277 277 278 278 277 277 276 276 276
275 276 274 273 275 278 278 279 280 280 280 279 279 280 280 282 281 283 281 282 282 282 282 282 282 281 280 281 282 280 279 279 277 275 274 274 274 276 276 276 275 275 275 276
274 272 273 275 281 280 278 281 280 281 281 281 280 280 281 281 282 283 282 282 282 281 281 280 280 280 278 279 279 279 278 276 273 273 273 273 273 274 274 275 275 275 274 275
275 276 273 274 281 282 283 283 283 283 282 282 281 281 282 281 281 282 282 282 282 281 280 280 280 279 278 278 277 276 275 273 273 272 273 273 273 272 273 274 275 275 276 278
275 277 278 278 284 283 284 285 284 283 283 283 280 279 278 281 281 281 281 281 281 280 279 279 278 277 276 275 274 272 271 272 272 272 272 272 272 272 273 272 272 278 279 279
Wind_Speed
1 4 11 17 13 8 10 7 8 2 5 4 7 9 10 8 5 7 7 6 7 7 4 4 4 5 4 5 6 7 8 6 5 2 2 2 2 2 2 3 3 5 5 5
5 1 3 11 8 9 16 13 4 4 4 2 2 15 7 7 6 7 10 9 8 5 5 4 3 2 3 5 6 7 6 6 4 3 2 2 2 2 2 3 6 6 5 5
5 1 4 5 8 10 5 14 6 6 5 3 3 7 10 5 4 5 7 6 6 10 8 5 5 4 5 5 6 6 6 6 4 5 4 3 3 2 2 2 2 4 5 4
2 2 14 6 7 5 5 7 11 14 9 4 6 7 7 11 10 8 12 9 7 9 7 5 6 4 5 4 5 6 6 6 4 5 4 4 2 3 1 2 2 2 4 5
2 2 10 15 9 12 0 1 12 8 6 2 5 4 3 4 7 12 16 13 10 9 10 10 8 6 4 4 5 5 7 6 5 5 5 5 5 3 2 2 2 3 3 4
4 1 4 3 5 4 12 6 8 5 3 7 7 8 5 7 11 9 14 15 13 11 8 7 6 7 6 5 6 6 7 5 5 6 5 6 7 5 3 2 2 2 3 3
2 4 2 6 8 4 5 7 2 1 4 6 2 8 11 7 8 12 15 14 11 10 11 11 10 9 8 7 6 6 7 6 5 6 6 6 6 5 4 2 2 3 3 2
3 3 7 6 3 3 7 6 5 6 5 3 2 8 8 4 7 6 6 10 12 11 10 11 11 10 10 9 8 7 7 7 6 6 5 4 5 3 3 2 1 1 2 3
5 2 3 6 4 3 3 3 3 5 2 3 5 6 12 1 5 3 4 10 14 15 15 15 12 11 10 9 9 9 8 6 6 6 5 4 4 4 3 2 0 1 3 4
2 6 3 3 3 10 5 4 4 1 5 5 3 4 6 4 5 6 7 9 11 12 12 11 11 11 8 8 7 7 6 7 6 6 5 4 4 3 2 1 2 3 4 4
3 3 2 1 0 4 3 2 3 2 2 3 2 5 6 7 6 8 10 10 13 14 13 13 10 8 8 6 6 6 6 7 6 5 5 5 3 2 2 2 3 3 4 5
1 4 3 1 1 2 2 2 4 3 4 3 2 7 3 8 8 6 8 9 9 10 11 10 9 9 8 8 6 7 6 6 6 5 5 4 3 2 2 3 4 4 6 6
3 0 4 2 2 3 4 5 2 0 3 5 4 5 1 5 3 4 8 8 10 11 9 8 8 10 10 9 8 7 6 6 6 5 5 4 3 1 2 4 4 5 6 7
2 2 4 5 4 6 6 9 12 4 3 4 6 7 8 5 3 3 6 7 10 11 12 11 10 10 9 9 9 8 6 6 6 5 5 4 2 1 3 4 4 5 5 6
4 2 1 2 4 1 3 5 13 13 10 8 9 12 16 3 6 5 8 8 9 10 11 13 13 11 10 9 8 7 6 6 6 6 5 4 2 2 4 4 4 4 4 6
2 1 2 3 4 4 3 6 10 15 8 16 12 17 10 11 3 4 8 10 12 15 17 16 15 13 13 13 11 9 8 7 6 6 5 4 3 4 3 4 4 4 5 6
3 5 3 5 4 3 6 12 14 6 5 9 9 9 2 4 8 10 9 12 16 18 19 17 17 15 14 13 11 11 9 6 7 5 5 4 4 4 4 4 4 5 6 6
5 5 3 3 5 3 9 1 4 11 9 8 11 12 5 6 6 8 8 12 16 13 13 15 14 14 9 8 7 8 8 7 6 6 5 5 4 3 4 4 4 5 5 7
3 5 4 5 4 8 7 4 7 8 5 3 10 11 10 7 6 13 9 12 14 14 13 11 11 10 11 13 11 10 7 7 6 6 6 5 3 3 4 4 5 4 6 6
5 7 6 4 5 7 7 1 2 2 5 5 4 6 5 4 0 5 7 6 9 5 6 8 8 6 12 10 12 12 9 7 6 6 6 5 4 3 3 4 5 5 5 7
3 4 6 3 2 12 9 5 4 8 9 5 4 3 3 2 6 5 9 8 5 4 7 7 8 11 12 12 12 11 8 7 6 7 6 5 4 3 3 4 3 5 5 5
9 9 5 4 3 11 8 5 8 7 1 3 4 3 4 7 8 6 6 6 5 6 7 7 8 8 8 11 12 11 9 7 7 7 6 5 4 4 3 3 4 4 5 4
4 8 8 11 11 5 8 4 3 3 3 4 3 2 2 3 3 5 4 6 5 5 6 6 10 10 6 7 9 12 9 8 8 7 6 5 4 4 3 4 5 4 4 4
5 3 3 2 6 8 6 6 6 5 8 3 4 3 4 5 5 7 3 2 4 4 5 4 10 10 8 6 8 10 9 8 8 8 6 4 4 5 4 4 3 4 3 4
4 6 6 6 10 3 8 9 7 9 6 7 6 6 7 5 5 4 5 1 3 4 5 6 9 10 9 8 9 8 9 9 9 7 5 5 4 3 3 3 3 2 2 8
7 9 7 8 8 4 2 3 5 6 6 6 4 3 4 6 6 4 5 3 5 6 6 6 7 10 9 9 8 6 6 7 9 8 5 4 4 2 4 4 3 12 14 17
Wind_Direction
120 320 179 169 180 138 141 130 146 131 154 142 218 238 214 200 189 217 229 206 206 213 205 201 218 236 202 168 156 154 148 159 144 139 155 161 156 118 97 73 59 44 31 20
191 66 77 131 114 151 151 174 141 61 104 108 327 263 244 177 212 201 216 213 206 176 193 200 176 115 136 141 144 142 142 141 146 144 149 140 135 98 88 84 70 43 41 36
191 96 153 142 134 152 158 172 166 135 130 42 116 261 246 229 203 210 239 245 190 192 186 186 167 149 126 118 125 125 125 131 136 136 119 98 83 87 94 48 48 32 38 41
169 262 172 168 174 171 162 172 152 133 148 211 189 265 221 204 211 209 222 216 212 188 170 161 162 156 150 137 113 107 104 107 110 147 161 164 161 134 120 100 56 28 32 37
146 205 181 163 176 166 354 155 151 162 146 175 182 265 235 135 227 229 223 211 206 198 169 167 171 156 139 142 124 115 111 103 102 103 114 121 117 118 111 91 77 21 17 24
86 25 18 61 60 135 139 82 48 60 56 247 194 193 233 180 209 230 215 213 191 176 157 149 145 141 135 130 128 126 117 105 104 106 116 132 132 131 127 105 45 4 359 352
34 26 55 28 83 25 111 125 27 128 190 242 349 208 256 247 240 228 213 205 177 161 158 155 161 159 143 153 145 133 133 125 126 124 121 121 120 119 110 99 45 10 352 344
111 147 4 349 22 130 144 160 155 184 194 175 2 236 246 267 294 228 204 176 157 156 160 167 168 161 154 163 158 149 151 142 146 131 122 108 103 101 95 81 53 349 316 304
134 80 313 45 47 345 140 118 84 104 38 68 209 277 286 15 279 311 171 155 169 167 168 170 170 166 163 166 170 166 153 142 144 133 117 112 118 112 97 78 50 309 301 295
109 95 7 12 351 33 58 128 99 20 161 231 246 257 247 325 285 229 191 188 175 168 167 164 169 166 170 170 163 160 154 148 147 136 140 145 131 114 108 38 347 320 309 320
82 83 22 101 160 161 133 151 73 121 173 176 303 261 211 253 260 247 206 184 176 169 170 170 167 166 172 162 159 155 147 146 149 148 154 133 132 99 45 10 341 329 312 319
92 106 102 66 358 351 52 154 160 174 201 241 137 273 220 268 268 229 181 166 162 167 169 165 160 166 175 173 168 162 156 154 164 161 151 129 97 54 8 343 332 335 327 336
196 72 103 37 355 358 225 188 199 130 94 207 159 257 193 327 29 150 155 160 165 161 161 164 165 181 181 181 175 171 168 172 167 163 143 119 91 53 336 344 345 354 342 334
78 148 187 179 164 133 201 203 194 181 164 182 212 282 280 275 327 159 165 168 168 179 179 180 181 189 190 186 179 177 172 176 168 159 141 133 136 17 356 354 359 352 343 322
107 152 348 47 54 8 229 179 190 208 215 195 212 213 247 232 218 202 191 164 170 186 187 192 192 193 188 187 182 173 177 174 171 158 151 149 94 31 22 8 1 342 325 327
34 205 106 352 23 35 301 250 208 218 233 248 262 279 243 262 185 180 193 180 191 201 204 200 195 188 191 192 186 174 184 181 168 173 162 117 69 44 25 2 345 342 330 328
100 128 73 278 359 353 326 224 204 195 222 210 204 241 213 267 233 234 215 200 206 207 205 199 198 193 191 190 174 182 175 159 175 162 128 98 72 42 11 356 356 347 336 338
123 89 58 232 13 358 242 164 195 212 247 228 279 267 256 259 268 261 226 207 223 216 204 205 198 196 180 146 148 144 158 164 156 142 122 95 75 38 12 1 360 347 341 346
33 108 82 126 185 291 286 197 173 168 282 215 232 275 286 291 294 282 224 217 225 207 208 206 192 181 156 157 151 148 140 141 148 133 106 96 81 43 18 6 360 348 352 352
50 48 109 73 136 211 245 193 198 115 306 188 203 276 296 329 228 267 349 306 254 216 165 166 151 134 145 147 147 137 147 146 133 121 115 109 86 59 34 6 6 359 2 13
126 19 155 150 203 283 236 161 147 87 237 174 180 243 272 217 214 288 324 330 333 166 140 122 139 154 154 143 137 139 133 131 127 116 111 96 78 81 42 23 22 20 24 23
162 148 182 83 91 269 154 82 161 214 182 183 204 200 235 254 281 284 318 345 28 119 124 133 125 129 134 137 131 131 124 124 117 112 105 93 76 61 47 43 37 37 40 24
217 182 178 185 207 232 209 180 205 164 176 225 205 202 226 314 314 301 344 18 38 111 119 115 127 120 103 114 127 123 137 127 117 106 102 96 82 67 39 54 49 52 30 23
259 171 169 78 260 229 234 256 231 213 227 224 237 273 269 271 309 316 313 19 80 99 119 108 123 125 112 96 93 113 123 122 114 111 113 108 85 67 49 58 56 59 19 20
188 122 175 268 278 241 232 229 214 233 258 267 259 240 247 252 275 281 301 189 155 143 127 136 136 131 125 113 108 122 128 123 115 117 116 99 83 73 71 65 64 42 349 50
189 177 174 214 220 180 214 174 168 194 217 237 193 291 269 220 242 246 270 219 165 170 147 136 130 127 130 123 122 120 129 137 134 123 121 122 122 87 84 76 72 58 69 58